Terug naar catalogus

DELTA 1 DEB

ActiefPO
NORAD 9003·DEBRIS·🇺🇸 United States

Gelanceerd Jan 22, 1975 vanaf Vandenberg Space Force Base

Loading…

Volgende Passages (komende 24 uur)

TLE

VersSource: Space-Track

Epoch: Sep 14, 2026, 12:13 UTC

1 09003U 75004CM  26257.50958612  .00001506  00000-0  15258-3 0  9992
2 09003  98.2994  85.5832 0020114 311.2380  48.7104 14.92476778681466

Volg DELTA 1 DEB in realtime met AllMySat

Download on the App Store